Office,Dingwall
Station Name,Apigill
Location Code,234153
Parameter,River Stage(SG)
Timeseries,SG.15m.Cmd
Copyright SEPA 2018. This SEPA Data is licensed under the Open Government Licence 3.0., http://www.nationalarchives.gov.uk/doc/open-government-licence/version/3
Date/Time,SG(m)
20/12/2020 00:30:00,0.6
20/12/2020 00:45:00,0.601
20/12/2020 01:00:00,0.602
20/12/2020 01:15:00,0.604
20/12/2020 01:30:00,0.605
20/12/2020 01:45:00,0.605
20/12/2020 02:00:00,0.605
20/12/2020 02:15:00,0.606
20/12/2020 02:30:00,0.605
20/12/2020 02:45:00,0.604
20/12/2020 03:00:00,0.605
20/12/2020 03:15:00,0.604
20/12/2020 03:30:00,0.603
20/12/2020 03:45:00,0.602
20/12/2020 04:00:00,0.601
20/12/2020 04:15:00,0.599
20/12/2020 04:30:00,0.598
20/12/2020 04:45:00,0.597
20/12/2020 05:00:00,0.596
20/12/2020 05:15:00,0.596
20/12/2020 05:30:00,0.596
20/12/2020 05:45:00,0.595
20/12/2020 06:00:00,0.595
20/12/2020 06:15:00,0.595
20/12/2020 06:30:00,0.595
20/12/2020 06:45:00,0.595
20/12/2020 07:00:00,0.595
20/12/2020 07:15:00,0.594
20/12/2020 07:30:00,0.595
20/12/2020 07:45:00,0.595
20/12/2020 08:00:00,0.596
20/12/2020 08:15:00,0.598
20/12/2020 08:30:00,0.599
20/12/2020 08:45:00,0.602
20/12/2020 09:00:00,0.602
20/12/2020 09:15:00,0.604
20/12/2020 09:30:00,0.602
20/12/2020 09:45:00,0.602
20/12/2020 10:00:00,0.6
20/12/2020 10:15:00,0.6
20/12/2020 10:30:00,0.599
20/12/2020 10:45:00,0.598
20/12/2020 11:00:00,0.597
20/12/2020 11:15:00,0.596
20/12/2020 11:30:00,0.596
20/12/2020 11:45:00,0.595
20/12/2020 12:00:00,0.596
20/12/2020 12:15:00,0.595
20/12/2020 12:30:00,0.595
20/12/2020 12:45:00,0.594
20/12/2020 13:00:00,0.594
20/12/2020 13:15:00,0.594
20/12/2020 13:30:00,0.594
20/12/2020 13:45:00,0.594
20/12/2020 14:00:00,0.593
20/12/2020 14:15:00,0.593
20/12/2020 14:30:00,0.591
20/12/2020 14:45:00,0.59
20/12/2020 15:00:00,0.592
20/12/2020 15:15:00,0.591
20/12/2020 15:30:00,0.591
20/12/2020 15:45:00,0.59
20/12/2020 16:00:00,0.59
20/12/2020 16:15:00,0.59
20/12/2020 16:30:00,0.59
20/12/2020 16:45:00,0.59
20/12/2020 17:00:00,0.59
20/12/2020 17:15:00,0.591
20/12/2020 17:30:00,0.591
20/12/2020 17:45:00,0.59
20/12/2020 18:00:00,0.59
20/12/2020 18:15:00,0.588
20/12/2020 18:30:00,0.589
20/12/2020 18:45:00,0.589
20/12/2020 19:00:00,0.588
20/12/2020 19:15:00,0.587
20/12/2020 19:30:00,0.587
20/12/2020 19:45:00,0.587
20/12/2020 20:00:00,0.586
20/12/2020 20:15:00,0.587
20/12/2020 20:30:00,0.586
20/12/2020 20:45:00,0.586
20/12/2020 21:00:00,0.586
20/12/2020 21:15:00,0.586
20/12/2020 21:30:00,0.586
20/12/2020 21:45:00,0.586
20/12/2020 22:00:00,0.586
20/12/2020 22:15:00,0.588
20/12/2020 22:30:00,0.587
20/12/2020 22:45:00,0.588
20/12/2020 23:00:00,0.587
20/12/2020 23:15:00,0.587
20/12/2020 23:30:00,0.585
20/12/2020 23:45:00,0.585
21/12/2020 00:00:00,0.584
21/12/2020 00:15:00,0.584
21/12/2020 00:30:00,0.583
21/12/2020 00:45:00,0.583
21/12/2020 01:00:00,0.584
21/12/2020 01:15:00,0.584
21/12/2020 01:30:00,0.586
21/12/2020 01:45:00,0.586
21/12/2020 02:00:00,0.586
21/12/2020 02:15:00,0.587
21/12/2020 02:30:00,0.588
21/12/2020 02:45:00,0.587
21/12/2020 03:00:00,0.586
21/12/2020 03:15:00,0.585
21/12/2020 03:30:00,0.585
21/12/2020 03:45:00,0.584
21/12/2020 04:00:00,0.582
21/12/2020 04:15:00,0.582
21/12/2020 04:30:00,0.582
21/12/2020 04:45:00,0.581
21/12/2020 05:00:00,0.58
21/12/2020 05:15:00,0.58
21/12/2020 05:30:00,0.578
21/12/2020 05:45:00,0.577
21/12/2020 06:00:00,0.576
21/12/2020 06:15:00,0.576
21/12/2020 06:30:00,0.575
21/12/2020 06:45:00,0.575
21/12/2020 07:00:00,0.574
21/12/2020 07:15:00,0.574
21/12/2020 07:30:00,0.574
21/12/2020 07:45:00,0.574
21/12/2020 08:00:00,0.575
21/12/2020 08:15:00,0.575
21/12/2020 08:30:00,0.576
21/12/2020 08:45:00,0.576
21/12/2020 09:00:00,0.575
21/12/2020 09:15:00,0.574
21/12/2020 09:30:00,0.573
21/12/2020 09:45:00,0.572
21/12/2020 10:00:00,0.572
21/12/2020 10:15:00,0.571
21/12/2020 10:30:00,0.571
21/12/2020 10:45:00,0.57
21/12/2020 11:00:00,0.57
21/12/2020 11:15:00,0.569
21/12/2020 11:30:00,0.569
21/12/2020 11:45:00,0.569
21/12/2020 12:00:00,0.568
21/12/2020 12:15:00,0.568
21/12/2020 12:30:00,0.568
21/12/2020 12:45:00,0.567
21/12/2020 13:00:00,0.567
21/12/2020 13:15:00,0.567
21/12/2020 13:30:00,0.566
21/12/2020 13:45:00,0.566
21/12/2020 14:00:00,0.565
21/12/2020 14:15:00,0.566
21/12/2020 14:30:00,0.566
21/12/2020 14:45:00,0.565
21/12/2020 15:00:00,0.565
21/12/2020 15:15:00,0.566
21/12/2020 15:30:00,0.567
21/12/2020 15:45:00,0.566
21/12/2020 16:00:00,0.567
21/12/2020 16:15:00,0.566
21/12/2020 16:30:00,0.564
21/12/2020 16:45:00,0.566
21/12/2020 17:00:00,0.566
21/12/2020 17:15:00,0.566
21/12/2020 17:30:00,0.567
21/12/2020 17:45:00,0.566
21/12/2020 18:00:00,0.567
21/12/2020 18:15:00,0.566
21/12/2020 18:30:00,0.567
21/12/2020 18:45:00,0.566
21/12/2020 19:00:00,0.566
21/12/2020 19:15:00,0.565
21/12/2020 19:30:00,0.565
21/12/2020 19:45:00,0.564
21/12/2020 20:00:00,0.565
21/12/2020 20:15:00,0.565
21/12/2020 20:30:00,0.566
21/12/2020 20:45:00,0.565
21/12/2020 21:00:00,0.565
21/12/2020 21:15:00,0.565
21/12/2020 21:30:00,0.565
21/12/2020 21:45:00,0.564
21/12/2020 22:00:00,0.566
21/12/2020 22:15:00,0.566
21/12/2020 22:30:00,0.567
21/12/2020 22:45:00,0.565
21/12/2020 23:00:00,0.569
21/12/2020 23:15:00,0.57
21/12/2020 23:30:00,0.572
21/12/2020 23:45:00,0.573
22/12/2020 00:00:00,0.574
22/12/2020 00:15:00,0.575
22/12/2020 00:30:00,0.575
22/12/2020 00:45:00,0.575
22/12/2020 01:00:00,0.575
22/12/2020 01:15:00,0.573
22/12/2020 01:30:00,0.572
22/12/2020 01:45:00,0.57
22/12/2020 02:00:00,0.569
22/12/2020 02:15:00,0.567
22/12/2020 02:30:00,0.567
22/12/2020 02:45:00,0.566
22/12/2020 03:00:00,0.565
22/12/2020 03:15:00,0.566
22/12/2020 03:30:00,0.564
22/12/2020 03:45:00,0.564
22/12/2020 04:00:00,0.564
22/12/2020 04:15:00,0.565
22/12/2020 04:30:00,0.566
22/12/2020 04:45:00,0.566
22/12/2020 05:00:00,0.567
22/12/2020 05:15:00,0.566
22/12/2020 05:30:00,0.566
22/12/2020 05:45:00,0.565
22/12/2020 06:00:00,0.565
22/12/2020 06:15:00,0.564
22/12/2020 06:30:00,0.564
22/12/2020 06:45:00,0.563
22/12/2020 07:00:00,0.562
22/12/2020 07:15:00,0.562
22/12/2020 07:30:00,0.562
22/12/2020 07:45:00,0.562
22/12/2020 08:00:00,0.562
22/12/2020 08:15:00,0.562
22/12/2020 08:30:00,0.562
22/12/2020 08:45:00,0.564
22/12/2020 09:00:00,0.563
22/12/2020 09:15:00,0.563
22/12/2020 09:30:00,0.564
22/12/2020 09:45:00,0.565
22/12/2020 10:00:00,0.564
22/12/2020 10:15:00,0.566
22/12/2020 10:30:00,0.565
22/12/2020 10:45:00,0.566
22/12/2020 11:00:00,0.566
22/12/2020 11:15:00,0.566
22/12/2020 11:30:00,0.566
22/12/2020 11:45:00,0.567
22/12/2020 12:00:00,0.569
22/12/2020 12:15:00,0.57
22/12/2020 12:30:00,0.571
22/12/2020 12:45:00,0.574
22/12/2020 13:00:00,0.573
22/12/2020 13:15:00,0.574
22/12/2020 13:30:00,0.573
22/12/2020 13:45:00,0.573
22/12/2020 14:00:00,0.573
22/12/2020 14:15:00,0.572
22/12/2020 14:30:00,0.572
22/12/2020 14:45:00,0.571
22/12/2020 15:00:00,0.571
22/12/2020 15:15:00,0.571
22/12/2020 15:30:00,0.57
22/12/2020 15:45:00,0.57
22/12/2020 16:00:00,0.57
22/12/2020 16:15:00,0.57
22/12/2020 16:30:00,0.57
22/12/2020 16:45:00,0.57
22/12/2020 17:00:00,0.571
22/12/2020 17:15:00,0.571
22/12/2020 17:30:00,0.571
22/12/2020 17:45:00,0.572
22/12/2020 18:00:00,0.573
22/12/2020 18:15:00,0.573
22/12/2020 18:30:00,0.573
22/12/2020 18:45:00,0.575
22/12/2020 19:00:00,0.576
22/12/2020 19:15:00,0.578
22/12/2020 19:30:00,0.579
22/12/2020 19:45:00,0.58
22/12/2020 20:00:00,0.582
22/12/2020 20:15:00,0.581
22/12/2020 20:30:00,0.581
22/12/2020 20:45:00,0.581
22/12/2020 21:00:00,0.581
22/12/2020 21:15:00,0.581
22/12/2020 21:30:00,0.581
22/12/2020 21:45:00,0.582
22/12/2020 22:00:00,0.582
22/12/2020 22:15:00,0.582
22/12/2020 22:30:00,0.582
22/12/2020 22:45:00,0.583
22/12/2020 23:00:00,0.582
22/12/2020 23:15:00,0.582
22/12/2020 23:30:00,0.582
22/12/2020 23:45:00,0.583
23/12/2020 00:00:00,0.583
23/12/2020 00:15:00,0.582
23/12/2020 00:30:00,0.583
23/12/2020 00:45:00,0.583
23/12/2020 01:00:00,0.583
23/12/2020 01:15:00,0.584
23/12/2020 01:30:00,0.584
23/12/2020 01:45:00,0.585
23/12/2020 02:00:00,0.585
23/12/2020 02:15:00,0.585
23/12/2020 02:30:00,0.586
23/12/2020 02:45:00,0.586
23/12/2020 03:00:00,0.586
23/12/2020 03:15:00,0.586
23/12/2020 03:30:00,0.587
23/12/2020 03:45:00,0.587
23/12/2020 04:00:00,0.589
23/12/2020 04:15:00,0.588
23/12/2020 04:30:00,0.588
23/12/2020 04:45:00,0.589
23/12/2020 05:00:00,0.59
23/12/2020 05:15:00,0.59
23/12/2020 05:30:00,0.59
23/12/2020 05:45:00,0.59
23/12/2020 06:00:00,0.592
23/12/2020 06:15:00,0.592
23/12/2020 06:30:00,0.593
23/12/2020 06:45:00,0.594
23/12/2020 07:00:00,0.595
23/12/2020 07:15:00,0.596
23/12/2020 07:30:00,0.597
23/12/2020 07:45:00,0.598
23/12/2020 08:00:00,0.598
23/12/2020 08:15:00,0.6
23/12/2020 08:30:00,0.601
23/12/2020 08:45:00,0.602
23/12/2020 09:00:00,0.604
23/12/2020 09:15:00,0.606
23/12/2020 09:30:00,0.607
23/12/2020 09:45:00,0.609
23/12/2020 10:00:00,0.61
23/12/2020 10:15:00,0.613
23/12/2020 10:30:00,0.614
23/12/2020 10:45:00,0.616
23/12/2020 11:00:00,0.618
23/12/2020 11:15:00,0.62
23/12/2020 11:30:00,0.62
23/12/2020 11:45:00,0.621
23/12/2020 12:00:00,0.622
23/12/2020 12:15:00,0.622
23/12/2020 12:30:00,0.623
23/12/2020 12:45:00,0.624
23/12/2020 13:00:00,0.624
23/12/2020 13:15:00,0.624
23/12/2020 13:30:00,0.624
23/12/2020 13:45:00,0.625
23/12/2020 14:00:00,0.624
23/12/2020 14:15:00,0.626
23/12/2020 14:30:00,0.625
23/12/2020 14:45:00,0.625
23/12/2020 15:00:00,0.625
23/12/2020 15:15:00,0.625
23/12/2020 15:30:00,0.625
23/12/2020 15:45:00,0.627
23/12/2020 16:00:00,0.626
23/12/2020 16:15:00,0.626
23/12/2020 16:30:00,0.627
23/12/2020 16:45:00,0.627
23/12/2020 17:00:00,0.628
23/12/2020 17:15:00,0.628
23/12/2020 17:30:00,0.627
23/12/2020 17:45:00,0.627
23/12/2020 18:00:00,0.627
23/12/2020 18:15:00,0.628
23/12/2020 18:30:00,0.626
23/12/2020 18:45:00,0.626
23/12/2020 19:00:00,0.626
23/12/2020 19:15:00,0.626
23/12/2020 19:30:00,0.627
23/12/2020 19:45:00,0.627
23/12/2020 20:00:00,0.626
23/12/2020 20:15:00,0.627
23/12/2020 20:30:00,0.628
23/12/2020 20:45:00,0.626
23/12/2020 21:00:00,0.627
23/12/2020 21:15:00,0.628
23/12/2020 21:30:00,0.628
23/12/2020 21:45:00,0.627
23/12/2020 22:00:00,0.625
23/12/2020 22:15:00,0.627
23/12/2020 22:30:00,0.628
23/12/2020 22:45:00,0.628
23/12/2020 23:00:00,0.629
23/12/2020 23:15:00,0.629
23/12/2020 23:30:00,0.63
23/12/2020 23:45:00,0.63
